TimeCDT,TemperatureF,Dew PointF,Humidity,Sea Level PressureIn,VisibilityMPH,Wind Direction,Wind SpeedMPH,Gust SpeedMPH,PrecipitationIn,Events,Conditions,WindDirDegrees,DateUTC
12:54 AM,66.9,61.0,81,29.94,10.0,SSE,12.7,23.0,N/A,,Clear,150,2012-03-20 05:54:00
1:54 AM,66.0,62.1,87,29.94,10.0,SSE,9.2,-,N/A,,Mostly Cloudy,160,2012-03-20 06:54:00
2:54 AM,66.0,62.1,87,29.93,9.0,SSE,11.5,-,N/A,,Mostly Cloudy,150,2012-03-20 07:54:00
3:54 AM,66.0,62.1,87,29.91,8.0,SE,9.2,-,N/A,,Mostly Cloudy,140,2012-03-20 08:54:00
4:27 AM,64.4,62.6,94,29.91,8.0,SE,10.4,-,N/A,,Scattered Clouds,140,2012-03-20 09:27:00
4:54 AM,64.9,62.1,90,29.90,7.0,SSE,11.5,-,N/A,,Partly Cloudy,150,2012-03-20 09:54:00
5:54 AM,64.9,62.1,90,29.91,8.0,SE,10.4,-,N/A,,Clear,140,2012-03-20 10:54:00
6:54 AM,66.0,63.0,90,29.92,9.0,SE,12.7,-,N/A,,Partly Cloudy,140,2012-03-20 11:54:00
7:14 AM,66.2,62.6,88,29.94,7.0,SE,11.5,-,N/A,,Mostly Cloudy,140,2012-03-20 12:14:00
7:24 AM,66.2,62.6,88,29.94,8.0,SE,15.0,-,N/A,,Mostly Cloudy,140,2012-03-20 12:24:00
7:54 AM,66.9,63.0,87,29.93,7.0,SE,15.0,-,N/A,,Scattered Clouds,140,2012-03-20 12:54:00
8:24 AM,68.0,62.6,83,29.94,8.0,SE,17.3,26.5,N/A,,Mostly Cloudy,140,2012-03-20 13:24:00
8:54 AM,69.1,63.0,81,29.93,9.0,SE,19.6,32.2,N/A,,Mostly Cloudy,140,2012-03-20 13:54:00
9:54 AM,72.0,63.0,73,29.96,10.0,SSE,18.4,27.6,N/A,,Overcast,150,2012-03-20 14:54:00
10:54 AM,73.9,63.0,68,29.96,10.0,SSE,18.4,29.9,N/A,,Mostly Cloudy,160,2012-03-20 15:54:00
11:09 AM,73.4,62.6,69,29.97,10.0,SSE,18.4,27.6,N/A,,Overcast,150,2012-03-20 16:09:00
11:54 AM,77.0,64.0,64,29.95,10.0,SSE,21.9,29.9,N/A,,Scattered Clouds,150,2012-03-20 16:54:00
12:54 PM,80.1,63.0,56,29.92,10.0,SSE,20.7,32.2,N/A,,Scattered Clouds,150,2012-03-20 17:54:00
1:54 PM,81.0,62.1,52,29.89,10.0,SSE,23.0,35.7,N/A,,Mostly Cloudy,150,2012-03-20 18:54:00
2:54 PM,79.0,62.1,56,29.88,10.0,SSE,19.6,26.5,0.00,,Mostly Cloudy,150,2012-03-20 19:54:00
3:54 PM,80.1,60.1,50,29.88,10.0,SSE,13.8,28.8,N/A,,Mostly Cloudy,160,2012-03-20 20:54:00
4:54 PM,78.1,60.1,54,29.86,10.0,SSE,20.7,32.2,N/A,,Mostly Cloudy,150,2012-03-20 21:54:00
5:54 PM,77.0,60.1,56,29.88,10.0,SE,20.7,29.9,N/A,,Mostly Cloudy,140,2012-03-20 22:54:00
6:54 PM,75.0,60.1,60,29.88,10.0,SE,18.4,28.8,N/A,,Partly Cloudy,140,2012-03-20 23:54:00
7:54 PM,73.0,61.0,66,29.89,10.0,SE,13.8,-,N/A,,Clear,140,2012-03-21 00:54:00
8:54 PM,73.0,61.0,66,29.90,10.0,SSE,18.4,25.3,N/A,,Clear,150,2012-03-21 01:54:00
9:54 PM,72.0,61.0,68,29.92,10.0,SE,15.0,-,N/A,,Partly Cloudy,130,2012-03-21 02:54:00
10:54 PM,71.1,61.0,70,29.93,10.0,SE,15.0,27.6,N/A,,Partly Cloudy,140,2012-03-21 03:54:00
11:54 PM,69.1,61.0,75,29.93,10.0,SE,18.4,24.2,N/A,,Partly Cloudy,140,2012-03-21 04:54:00